Lemoore (Abandoned) Willett A, CO

10:50 PM MDT on September 19, 2017 (GMT -0600)
Lemoore (Abandoned) Willett A

Weather History for KLMO - August, 2013

Change the Weather History Date:

Thursday, August 29, 2013

  Actual Average (KBJC) Record (KBJC)
Temperature  
Mean Temperature 80 °F -  
Max Temperature 99 °F 82 °F 94 °F (1990)
Min Temperature 60 °F 57 °F 46 °F (1987)
Cooling Degree Days 14    
Growing Degree Days 30 (Base 50)    
Moisture  
Dew Point 47 °F    
Average Humidity 36    
Maximum Humidity 70    
Minimum Humidity 14    
Precipitation  
Precipitation 0.00 in - - ()
Sea Level Pressure  
Sea Level Pressure 30.20 in    
Wind  
Wind Speed 3 mph (West)    
Max Wind Speed 15 mph    
Max Gust Speed 29 mph    
Visibility 9 miles    
Events      
Averages and records for this station are not official NWS values.
T = Trace of Precipitation, MM = Missing Value Source: NWS Daily Summary

Daily Weather History Graph

Daily Weather History Graph

Search for Another Location

Airport or City:

Trip Planner

Search our weather history database for the weather conditions in past years. The results will help you decide how hot, cold, wet, or windy it might be!

Date:

Astronomy

Aug. 29, 2013 Rise Set
Actual Time 6:25 AM MDT 7:36 PM MDT
Civil Twilight 5:57 AM MDT 8:04 PM MDT
Nautical Twilight 5:24 AM MDT 8:37 PM MDT
Astronomical Twilight 4:49 AM MDT 9:12 PM MDT
Moon 12:19 AM MDT (8/29) 3:07 PM MDT (8/29)
Length of Visible Light 14h 06m
Length of Day
13h 10m
Last Quarter, 37% of the Moon is Illuminated
Aug 29
Last Quarter
Sep 5
New
Sep 12
First Quarter
Sep 19
Full
Sep 26
Last Quarter

Hourly Weather History & Observations

Time (MDT) Temp. Dew Point Humidity Pressure Visibility Wind Dir Wind Speed Gust Speed Precip Events Conditions
12:13 AM 70.0 °F 47.3 °F 44% 30.18 in 10.0 mi WSW 4.6 mph - N/A   Clear
12:33 AM 68.5 °F 48.9 °F 49% 30.18 in 10.0 mi West 3.5 mph - N/A   Clear
12:53 AM 70.0 °F 46.8 °F 43% 30.18 in 10.0 mi West 3.5 mph - N/A   Clear
1:13 AM 68.4 °F 47.5 °F 47% 30.17 in 7.0 mi SW 3.5 mph - N/A   Clear
1:33 AM 68.5 °F 47.1 °F 46% 30.17 in 10.0 mi WNW 3.5 mph - N/A   Clear
1:53 AM 65.5 °F 47.8 °F 53% 30.17 in 10.0 mi SSW 3.5 mph - N/A   Clear
2:13 AM 69.1 °F 47.1 °F 45% 30.17 in 10.0 mi West 3.5 mph - N/A   Clear
2:30 AM 69.8 °F 46.0 °F 43% 30.17 in 10.0 mi West 5.8 mph - N/A   Clear
2:37 AM 69.6 °F 45.9 °F 43% 30.17 in 10.0 mi West 5.8 mph - N/A   Clear
3:13 AM 66.6 °F 48.6 °F 52% 30.17 in 7.0 mi Calm Calm - N/A   Clear
3:33 AM 66.6 °F 48.2 °F 52% 30.17 in 10.0 mi Calm Calm - N/A   Clear
3:49 AM 64.2 °F 49.5 °F 59% 30.17 in 7.0 mi Calm Calm - N/A   Clear
4:13 AM 62.1 °F 50.0 °F 65% 30.17 in 10.0 mi Calm Calm - N/A   Clear
4:33 AM 62.1 °F 50.0 °F 65% 30.17 in 10.0 mi SSW 4.6 mph - N/A   Clear
4:53 AM 61.7 °F 50.2 °F 66% 30.17 in 7.0 mi WSW 4.6 mph - N/A   Clear
5:13 AM 60.3 °F 50.4 °F 70% 30.17 in 7.0 mi Calm Calm - N/A   Clear
5:33 AM 61.7 °F 50.0 °F 65% 30.17 in 10.0 mi Calm Calm - N/A   Clear
5:53 AM 60.4 °F 48.9 °F 66% 30.17 in 10.0 mi WNW 3.5 mph - N/A   Clear
6:13 AM 62.1 °F 48.4 °F 61% 30.17 in 10.0 mi WSW 3.5 mph - N/A   Clear
6:33 AM 61.7 °F 48.7 °F 62% 30.18 in 7.0 mi Calm Calm - N/A   Clear
6:53 AM 61.2 °F 49.8 °F 66% 30.18 in 4.0 mi Calm Calm - N/A   Haze
7:13 AM 63.3 °F 49.6 °F 61% 30.19 in 7.0 mi Calm Calm - N/A   Clear
7:33 AM 66.0 °F 51.4 °F 59% 30.20 in 7.0 mi Calm Calm - N/A   Clear
7:53 AM 70.5 °F 50.5 °F 49% 30.20 in 7.0 mi Calm Calm - N/A   Clear
8:13 AM 73.4 °F 50.9 °F 45% 30.20 in 7.0 mi Calm Calm - N/A   Clear
8:33 AM 75.4 °F 49.5 °F 40% 30.21 in 7.0 mi Calm Calm - N/A   Clear
8:53 AM 78.4 °F 52.3 °F 40% 30.21 in 10.0 mi Calm Calm - N/A   Clear
9:13 AM 81.5 °F 49.1 °F 32% 30.21 in 7.0 mi Calm Calm - N/A   Clear
9:33 AM 83.5 °F 49.5 °F 31% 30.21 in 10.0 mi East 4.6 mph - N/A   Clear
9:53 AM 85.3 °F 46.9 °F 26% 30.22 in 10.0 mi Calm Calm - N/A   Clear
10:13 AM 87.8 °F 47.3 °F 25% 30.22 in 7.0 mi Calm Calm - N/A   Clear
10:33 AM 88.7 °F 48.4 °F 25% 30.22 in 10.0 mi ENE 3.5 mph - N/A   Clear
10:53 AM 89.6 °F 46.9 °F 23% 30.22 in 10.0 mi NE 4.6 mph - N/A   Clear
11:13 AM 91.2 °F 47.5 °F 22% 30.22 in 10.0 mi East 3.5 mph - N/A   Clear
11:33 AM 92.1 °F 46.0 °F 20% 30.21 in 7.0 mi SE 4.6 mph - N/A   Clear
11:53 AM 94.1 °F 45.1 °F 19% 30.21 in 7.0 mi Calm Calm - N/A   Clear
12:10 PM 94.3 °F 42.1 °F 16% 30.21 in 10.0 mi North 4.6 mph - N/A   Clear
12:33 PM 95.4 °F 42.3 °F 16% 30.21 in 10.0 mi East 8.1 mph - N/A   Clear
12:53 PM 96.6 °F 43.2 °F 16% 30.21 in 10.0 mi East 11.5 mph - N/A   Clear
1:13 PM 97.2 °F 41.7 °F 15% 30.20 in 10.0 mi East 5.8 mph - N/A   Clear
1:33 PM 97.3 °F 42.4 °F 15% 30.19 in 7.0 mi Calm Calm - N/A   Clear
1:53 PM 97.7 °F 42.3 °F 15% 30.19 in 10.0 mi ENE 5.8 mph - N/A   Clear
2:13 PM 98.8 °F 42.6 °F 15% 30.19 in 10.0 mi ESE 3.5 mph - N/A   Clear
2:33 PM 94.5 °F 41.4 °F 16% 30.18 in 10.0 mi Calm Calm - N/A   Clear
2:53 PM 94.5 °F 41.5 °F 16% 30.18 in 10.0 mi East 3.5 mph - N/A   Clear
3:13 PM 99.0 °F 42.1 °F 14% 30.17 in 10.0 mi East 4.6 mph - N/A   Clear
3:33 PM 97.7 °F 42.1 °F 15% 30.17 in 10.0 mi Calm Calm - N/A   Clear
3:53 PM 99.7 °F 42.6 °F 14% 30.17 in 10.0 mi Calm Calm - N/A   Clear
4:13 PM 99.7 °F 44.2 °F 15% 30.17 in 10.0 mi ENE 4.6 mph - N/A   Clear
4:33 PM 95.9 °F 42.6 °F 16% 30.17 in 10.0 mi Calm Calm - N/A   Clear
4:53 PM 91.0 °F 47.8 °F 23% 30.18 in 10.0 mi North 15.0 mph 25.3 mph N/A   Clear
5:13 PM 89.4 °F 48.7 °F 25% 30.19 in 10.0 mi North 9.2 mph 17.3 mph N/A   Clear
5:33 PM 87.6 °F 49.5 °F 27% 30.19 in 10.0 mi NNW 5.8 mph - N/A   Clear
5:53 PM 86.9 °F 50.5 °F 28% 30.21 in 10.0 mi SSW 9.2 mph - N/A   Clear
6:06 PM 85.3 °F 47.5 °F 27% 30.21 in 10.0 mi WSW 12.7 mph 28.8 mph N/A   Clear
6:33 PM 85.1 °F 47.8 °F 27% 30.21 in 10.0 mi WSW 6.9 mph 17.3 mph N/A   Clear
6:53 PM 84.4 °F 46.8 °F 27% 30.21 in 10.0 mi West 10.4 mph - N/A   Clear
7:13 PM 83.5 °F 49.1 °F 30% 30.21 in 10.0 mi NW 9.2 mph - N/A   Clear
7:33 PM 83.5 °F 46.9 °F 28% 30.21 in 10.0 mi WNW 10.4 mph 18.4 mph N/A   Clear
7:53 PM 83.3 °F 46.8 °F 28% 30.22 in 10.0 mi WNW 8.1 mph - N/A   Clear
8:13 PM 82.4 °F 46.2 °F 28% 30.22 in 10.0 mi West 5.8 mph - N/A   Scattered Clouds
8:33 PM 81.5 °F 46.2 °F 29% 30.22 in 10.0 mi WSW 5.8 mph - N/A   Scattered Clouds
8:53 PM 82.8 °F 45.7 °F 27% 30.23 in 10.0 mi SW 3.5 mph - N/A   Clear
9:13 PM 81.7 °F 46.0 °F 29% 30.22 in 10.0 mi Calm Calm - N/A   Clear
9:33 PM 80.6 °F 46.0 °F 30% 30.23 in 10.0 mi Calm Calm - N/A   Clear
9:53 PM 78.8 °F 48.2 °F 34% 30.22 in 10.0 mi Calm Calm - N/A   Clear
10:13 PM 75.7 °F 47.7 °F 37% 30.23 in 10.0 mi NE 3.5 mph - N/A   Clear
10:33 PM 77.7 °F 48.2 °F 35% 30.23 in 10.0 mi Calm Calm - N/A   Clear
10:53 PM 76.8 °F 49.1 °F 38% 30.23 in 10.0 mi Calm Calm - N/A   Clear
11:13 PM 73.6 °F 49.3 °F 42% 30.23 in 10.0 mi Calm Calm - N/A   Clear
11:33 PM 72.0 °F 50.2 °F 46% 30.23 in 10.0 mi WSW 3.5 mph - N/A   Clear
11:53 PM 71.4 °F 50.4 °F 47% 30.23 in 10.0 mi Calm Calm - N/A   Clear